星链-5065 (STARLINK-5065 )

导读

STARLINK-5065是美国于2023年2月17日发射的星链卫星,星链是美国太空探索技术公司打造的低轨卫星互联网星座项目。这类低轨卫星旨在提供覆盖全球的高速互联网接入服务,尤其服务于偏远地区和网络基础设施薄弱区域,该卫星入轨后承担星链星座组网相关功能,助力星座服务能力提升。

Basic Information
目录编号:
55641
目录名称:
STARLINK-5065
国际标识:
2023-021P
轨道中心:
EARTH
卫星名称:
星链-5065
卫星全名:
星链-5065 (STARLINK-5065 )
卫星状态:
在轨 (已飞行1303 天)
发射日期:
2023-02-17 UTC
国别 :
美国 (US)
星等 :
--
This satellite is enrolled in the Space Conjunction Data Service (SCDS) and the current flight risk assessment level is: No High Risk
Orbit Information
数据来源 国际轨道数据 AOE轨道数据
星历时间 2026-09-12T06:06:02+0800
16小时前
查看轨道信息
2026-09-10T02:00:00+0800
2天前
查看轨道信息
半长轴 6950.203km 6950.197km
偏心率 0.0002767 0.0003038
轨道倾角 69.999° 69.998°
近地点辐角 265.107° 273.595°
升交点赤经 75.036° 80.505°
平近点角 94.977° 260.255°
近地点 570.142km 569.948km
远地点 573.99km 574.172km
周期 96.107分钟 96.107分钟
每日圈数 14.98327 14.983288
Detailed Information
固有亮度:
5
最大亮度:
2.5
卫星平台:
Starlink v1.5
覆盖范围:
全球
运营商:
太空探索技术公司
运营商所在国:
美国
制造商(研发单位):
太空探索技术公司
制造商所在国:
美国
使用方式:
暂无
Satellite Introduction
星链(Starlink)计划是由太空探索技术公司(SpaceX)提出的一个巨型低轨卫星互联网星座项目,计划在2019年至2024年间在太空搭建由约1.2万颗卫星组成的“星链”网络,其中1584颗将部署在地球上空550千米处的近地轨道,并从2020年开始工作。该卫星仍在工作。
2D Orbit Map
3D Orbit Map
Orbit Altitude Analysis Chart
Orbit Inclination Analysis Chart
Orbit Comprehensive Analysis Chart
View Comprehensive Chart
Miss Distance Evolution Trend with All Objects
Collision Probability Evolution Trend with All Objects